Uncategorized

2021 Ratings: SEC Championship

How Are Speed Ratings Calculated?!?

Girls Adjustment: +4
Boys Adjustment: +1

PRIMETIME PERFORMERS

Amanda McGill, Dexter: First time sub-19, this senior has a chance to do some damage in the coming weeks.

Nicolas Fry, Ann Arbor Skyline: We’re here for the kids that make the dramatic leaps. 18:48 as a freshman to two straight sub-17 years. He’s on the cusp of breaking through that 16:00 barrier and has two big races left to do that.

GradeNameTimeTeamRating
10Rachel Forsyth17:48.3Ann Arbor Pioneer162.9
12Madison Foster18:10.1Temperance Bedford155.6
12Sarah Forsyth18:18.8Ann Arbor Pioneer152.7
11Emily Cooper18:36.5Ann Arbor Pioneer146.8
12Cookie Baugh18:47.2Ann Arbor Pioneer143.3
12Amanda McGill18:51.5Dexter141.8
12Maddie Stern18:53.8Saline141.1
12Madi Wood18:57.6Saline139.8
11Caroline Vance18:59.3Ann Arbor Skyline139.2
12Lydia Alig19:11.1Saline135.3
12Lauren Sancrant19:13.6Temperance Bedford134.5
9Sienna Snyder19:19.0Saline132.7
9Alena Blumberg19:23.7Dexter131.1
11Mia Rogan19:26.2Saline130.3
10Natalie Mello19:27.2Ann Arbor Pioneer129.9
10Laney Alig19:32.3Saline128.2
10Cecelia Thorington19:35.2Pinckney127.3
11Chesney Wilke19:35.5Tecumseh127.2
10Olivia Perrine19:41.2Jackson125.3
11Natalie Kessler19:42.4Ann Arbor Skyline124.9
10Allison Mayer19:49.1Ann Arbor Skyline122.6
9Corynn Gady19:52.2Saline121.6
9Mackenzie Sellenraad19:57.9Saline119.7
9Grace Roth19:58.2Saline119.6
11Aubrey Stager19:58.6Saline119.5
9Lucinda Paliani19:59.7Ann Arbor Huron119.1
9Abby Roth20:00.3Saline118.9
12Claire Endres20:02.8Saline118.1
12Charlotte Batra20:02.9Ann Arbor Pioneer118.0
10Sonya Shelgikar20:05.2Ann Arbor Huron117.3
11Allison Nutt20:05.4Ann Arbor Pioneer117.2
10Viktoria Bloniarz20:15.2Monroe113.9
11Mya Orner20:15.8Temperance Bedford113.7
10Zaryah Griffin20:16.4Pinckney113.5
10Trilian Krug20:17.3Chelsea113.2
12Emma Moore20:21.3Pinckney111.9
10Kate Varitek20:23.8Dexter111.1
10Katie Hume20:24.9Ann Arbor Pioneer110.7
11Rebekah Asselin20:27.5Temperance Bedford109.8
9Annabel O’Haver20:33.4Dexter107.9
9Sophy Skeels20:34.1Adrian107.6
11Kaylee Pesta20:34.3Tecumseh107.6
12Hannah McComas20:38.3Dexter106.2
11Lydia Cocciolone20:43.0Ann Arbor Skyline104.7
12Bridgette Dudley20:45.5Monroe103.8
11Annalisa DeGuzman20:55.8Ann Arbor Skyline100.4
12Kate Gaiser20:58.0Chelsea99.7
10Yoselin Fermin-Cam…20:58.1Adrian99.6
12Annissa Sisson20:59.4Dexter99.2
12Madeline Heinrichs21:01.7Temperance Bedford98.4
9Natalia DeMea21:10.0Chelsea95.7
12Lauren Kaus21:12.2Pinckney94.9
10Bailey Burt21:13.3Saline94.6
9Ayla Balazer21:16.1Ann Arbor Skyline93.6
12Sienna Schotten21:16.7Ypsilanti Lincoln93.4
10Izabella Loubser21:17.0Temperance Bedford93.3
10Lucy Woehlke21:18.1Saline93.0
11Emily Stevenson21:18.1Tecumseh93.0
9Madison Rogan21:20.2Saline92.3
10Celia Begosso21:20.5Ann Arbor Skyline92.2
10Diane Weber21:22.0Ypsilanti91.7
12Caitlyn Donnelly21:27.3Ann Arbor Skyline89.9
9Madison Morris21:27.4Tecumseh89.9
9Lauren Thompson21:31.0Chelsea88.7
10Anastee Davis21:39.3Adrian85.9
11Audra Guthre21:39.7Chelsea85.8
10Nancy Gage21:41.1Saline85.3
11Quinn Hilla21:42.4Dexter84.9
9Olivia Shaieb21:42.6Dexter84.8
9Lizzie Thibeault21:42.7Saline84.8
9Jessica Warren21:43.6Tecumseh84.5
11Emma Abbott21:44.2Tecumseh84.3
11Rachel Overgaard21:47.6Ann Arbor Huron83.1
9Kendra Bogan21:47.8Ann Arbor Huron83.1
11Morgan Kay21:56.4Monroe80.2
11Emma Bushroe21:57.9Temperance Bedford79.7
12Paige Hockley21:58.2Ann Arbor Pioneer79.6
10Avery Bogdasarian22:01.2Saline78.6
9Clara Peikert22:02.3Ann Arbor Pioneer78.2
11Samantha Sexton22:04.0Temperance Bedford77.7
11Katelyn Dec22:04.9Temperance Bedford77.4
11Sydney Dec22:06.4Temperance Bedford76.9
9Avery Lawrence22:08.2Dexter76.3
11Kelsey Knape22:08.8Tecumseh76.1
11Melanie Macias22:09.6Ypsilanti Lincoln75.8
10Eleanor Vogel22:09.7Ann Arbor Pioneer75.8
12Sidney Streetman22:10.3Dexter75.6
11Julia Kause22:15.3Chelsea73.9
11Antonia Bruckman22:18.1Dexter73.0
12Ashley Mitchell22:18.8Dexter72.7
9Katelynn Reading22:19.8Saline72.4
11Emily Ma22:21.3Ann Arbor Huron71.9
9Addison Streetman22:21.3Dexter71.9
9Jaya Shah22:22.2Ann Arbor Huron71.6
11Naomi Kaczor22:35.4Ann Arbor Pioneer67.2
12Kate Froedtert22:40.0Jackson65.7
11Grace Finley22:42.3Monroe64.9
11Mia Solomon22:49.7Ann Arbor Huron62.4
9Isabella Morris22:50.3Adrian62.2
9Lucy Pike22:50.4Ann Arbor Pioneer62.2
9Reese Oberski22:51.5Temperance Bedford61.8
11Fiona Shangguan22:51.6Ann Arbor Skyline61.8
10Madeleine Kauffman22:52.7Ann Arbor Skyline61.4
10Serena O’Brien22:54.2Ann Arbor Skyline60.9
11Brooke Matusik22:54.5Chelsea60.8
10Rebecca Rummel22:55.4Saline60.5
10Samantha Dark22:58.2Chelsea59.6
11Miranda Nielsen22:59.2Ann Arbor Skyline59.3
10Allisyn Pagel23:01.0Adrian58.7
9Hadley Feyen23:02.3Ann Arbor Pioneer58.2
12Margaret Lewis23:05.5Dexter57.2
10Marah Putnam23:09.6Chelsea55.8
10Brianna Wheaton23:11.0Pinckney55.3
11Madeline Hood23:11.5Ann Arbor Pioneer55.2
12Autumn Cuthbert23:12.6Tecumseh54.8
11Margriet Poppens23:12.8Ann Arbor Pioneer54.7
11Maya Goncalves23:13.5Ypsilanti Lincoln54.5
12Brooke Wise23:13.5Temperance Bedford54.5
11Monica Ristich23:13.9Ann Arbor Pioneer54.4
9Madalyyn Karsies23:19.2Pinckney52.6
10Anneliese Jones23:26.1Ann Arbor Pioneer50.3
9Avanti Ganesan23:29.8Ann Arbor Pioneer49.1
10Tessa Meyers23:31.2Saline48.6
10Mikayla Butters23:32.3Jackson48.2
10Seren Angus23:32.6Chelsea48.1
10Kate Graydon23:33.2Dexter47.9
9Addison Bruckman23:34.4Dexter47.5
10Ella Mitchell23:34.4Dexter47.5
10Stella Niemi23:39.2Dexter45.9
12Maekayla Rice23:39.8Saline45.7
12Sophie Woehlke23:40.8Saline45.4
12Melanie Valtadoros23:43.3Ann Arbor Pioneer44.6
12Hailey Winkelman23:45.4Monroe43.9
10Jaya Boggess23:46.3Ann Arbor Pioneer43.6
11Jennifer Gage23:48.0Saline43.0
10Madelyn Hagerty23:55.0Pinckney40.7
12Joanna Wallace23:57.0Pinckney40.0
12Mari Park23:59.1Ann Arbor Huron39.3
10Soleil Weaver24:05.6Pinckney37.1
11Kiera Tuttle24:08.0Saline36.3
10Sienna Tovar24:09.5Jackson35.8
11Claire Stanko24:12.1Ann Arbor Pioneer35.0
10Lola Vencill24:13.7Dexter34.4
9Hannah Sisson24:20.7Dexter32.1
12Brynn Richardson24:21.7Tecumseh31.8
9Mara McClellan24:22.9Saline31.4
9Kylie Warner24:25.3Saline30.6
10Caitlin Mertens24:29.4Ypsilanti Lincoln29.2
10Giovanna Bonasso24:30.3Ann Arbor Pioneer28.9
12Regina Madziar24:32.8Tecumseh28.1
11Chloe Sprague24:34.0Dexter27.7
10Elle Nowak24:37.9Tecumseh26.4
9Baneen Al-Heleal24:38.3Ypsilanti26.2
12Sarah McCreadie24:44.3Ann Arbor Pioneer24.2
9Neah Bloch24:51.2Saline21.9
10Neva Rognes24:56.8Saline20.1
10Cyprus Gabriel-Men…24:57.0Chelsea20.0
11Mistika Young24:57.6Adrian19.8
12Cecelia Tagliabue24:58.7Dexter19.4
12Emily Peterson25:02.9Tecumseh18.0
12Alexus Baldwin25:03.5Monroe17.8
10Ashlyn Mydloski25:08.0Monroe16.3
9Kailyn Austin25:09.1Saline16.0
9Jasmine Boggy25:11.9Ann Arbor Pioneer15.0
12Elena Bowman25:13.3Ann Arbor Pioneer14.6
10Miriam Rick25:22.2Tecumseh11.6
12Quinn Fowler25:26.3Monroe10.2
12Azi Lin25:27.4Saline9.9
10Lena Moltzen25:30.8Pinckney8.7
11Maya Hitchingham25:32.6Jackson8.1
12Bekah Etherington25:35.7Pinckney7.1
9Elizabeth Shepherd25:36.2Temperance Bedford6.9
9Rachel Sprauer25:36.7Ann Arbor Pioneer6.8
12Breana Austin25:38.9Saline6.0
11Anne Kleber25:39.8Dexter5.7
10Claire Zarinnia25:43.8Chelsea4.4
10Brielle Reason25:45.2Pinckney3.9
11Poppy Dudley25:46.3Ann Arbor Skyline3.6
10Avery Atkins25:48.6Saline2.8
11Valerie Oz25:53.4Temperance Bedford1.2
10Alexandria Mason25:53.8Ann Arbor Skyline1.1

GradeNameTimeTeamRating
12Caleb Jarema15:38.5Pinckney206.8
10Connell Alford16:00.6Chelsea199.5
12Owen Johnson16:05.6Ann Arbor Pioneer197.8
12Ethan Leitner16:14.4Tecumseh194.9
11Nicolas Fry16:19.5Ann Arbor Skyline193.2
11Bram Hartsuff16:22.4Chelsea192.2
11Luke Butler16:27.3Monroe190.6
10Braylon Petty16:28.6Adrian190.1
10Brandon Anderson16:35.6Dexter187.8
12Matt Ruud16:36.5Ann Arbor Pioneer187.5
12James Harrison16:37.9Saline187.0
12Sanjay Rao16:45.2Ann Arbor Skyline184.6
12Jordan Ratliff16:46.3Ypsilanti Lincoln184.2
10Luke Suliman16:48.6Ann Arbor Skyline183.5
10Vincent Peterson S…16:49.2Ann Arbor Pioneer183.3
11Ben Schefka16:49.8Adrian183.1
12Max Pfeiffer16:50.2Saline182.9
11Zebedee Swager16:52.8Chelsea182.1
12Andrew Stern16:52.9Saline182.0
12Alexander Ortiz16:53.5Temperance Bedford181.8
10Evan Loughridge16:55.1Pinckney181.3
12Josh Lamb16:56.6Dexter180.8
11Nick Spruce16:58.5Chelsea180.2
12Jonas Norwood16:59.8Chelsea179.7
12Chadwick Perrine17:00.3Jackson179.6
12Collin Balla17:00.6Temperance Bedford179.5
12Adam Hauser17:00.7Dexter179.4
11Owen Ackerman17:02.2Dexter178.9
10Truman Johnson17:04.4Saline178.2
10Aaron Sterken17:05.2Ann Arbor Pioneer177.9
11Adam Bigelow17:10.5Ann Arbor Huron176.2
11Jason Whitton17:10.5Saline176.2
12Samuel Kulczak17:10.9Saline176.0
11Samuel Jackson17:11.6Saline175.8
12Lev Nakamura17:12.6Ann Arbor Huron175.5
10Lucas Weintraub17:14.8Ann Arbor Huron174.7
11Chase Klapthor17:15.5Ann Arbor Pioneer174.5
11Alex Hoffman17:15.8Dexter174.4
12Fred Wallace17:15.8Ann Arbor Pioneer174.4
12Nathaniel Hobbs17:19.0Jackson173.3
11Christopher Van Lent17:20.8Ann Arbor Skyline172.7
10Ethan Sandula17:22.3Pinckney172.2
10Paul Moore17:25.7Pinckney171.1
11Shane Pitcher17:31.2Saline169.3
11Zach Debeauclair17:35.2Pinckney167.9
12Colin Snyder17:37.0Pinckney167.3
11Gabe Sweat17:39.3Monroe166.6
9Leo Swager17:41.0Chelsea166.0
12Andon Lewandowski17:41.2Ypsilanti Lincoln165.9
9Chris Anderson17:41.7Ann Arbor Pioneer165.8
12Matthew Dowling17:43.2Ann Arbor Huron165.3
10Mason Jett17:45.4Ann Arbor Skyline164.5
12Griffin Bentley17:45.6Dexter164.5
12Mason Kipley17:45.8Saline164.4
10Gabe Bock17:45.9Temperance Bedford164.4
12Alex Apetroaei17:48.5Monroe163.5
11Andrew Grier17:49.0Ann Arbor Pioneer163.3
12Zachary Sawin17:51.3Dexter162.6
11Ben Richards17:52.6Pinckney162.1
9Riley Smith17:53.5Adrian161.8
9Walker Brose17:57.5Ann Arbor Huron160.5
12Jadon Sterken17:59.1Ann Arbor Pioneer160.0
11Thomas Kerber17:59.2Ann Arbor Pioneer159.9
12Nick Parran18:02.9Monroe158.7
10Misha McElrath18:07.2Chelsea157.3
12Alex Ball18:07.9Ann Arbor Skyline157.0
11Henry LiPuma18:10.1Ann Arbor Pioneer156.3
9Nicholas Balla18:10.3Temperance Bedford156.2
10Joey Stevenson18:11.2Ann Arbor Pioneer155.9
12Peyton Williams18:11.7Jackson155.8
10Henry Beard18:12.5Ann Arbor Huron155.5
9Kiran Parekh18:12.7Ann Arbor Pioneer155.4
11Wade Cunningham18:12.8Ann Arbor Pioneer155.4
11Ethan Kapolka18:14.4Chelsea154.9
9Scott Smith18:16.2Dexter154.3
11Landon Wissink18:16.2Saline154.3
10Andrew Foshag18:18.1Monroe153.6
12Caleb Erickson18:22.7Jackson152.1
10Grant Fahle18:23.1Tecumseh152.0
11Stewart Berryhill18:24.9Saline151.4
12Gaige Smith18:25.1Jackson151.3
11Andrew Rowe18:25.8Tecumseh151.1
10Liam Bredeweg18:26.1Ann Arbor Pioneer151.0
11Eric VonBargen18:26.6Ann Arbor Skyline150.8
11Aidan Behmer18:28.0Ann Arbor Huron150.3
12Jonny Adamczyk18:28.7Dexter150.1
12Aditya Sesham18:29.3Ypsilanti Lincoln149.9
12Hayden Clarke18:30.0Saline149.7
10Maxx Adams18:30.1Monroe149.6
10Jackson Nyack18:30.7Adrian149.4
10Ewan Lemens18:33.5Ann Arbor Pioneer148.5
9Palmer Ziemer18:33.5Tecumseh148.5
11Thomas Lepper18:33.7Pinckney148.4
10Blake Mahler18:33.7Saline148.4
9Caleb Snyder18:34.5Dexter148.2
12Peter Florence18:35.0Ann Arbor Pioneer148.0
12Preston Ulery18:36.2Temperance Bedford147.6
11Elijah Routson18:36.7Saline147.4
11Kirilo Pereklita18:37.0Ann Arbor Huron147.3
9Zack Lummis18:37.8Pinckney147.1
12Luke Swanger18:38.0Saline147.0
9Jordan Bunce18:44.8Temperance Bedford144.7
11Joshua Gagne18:46.7Temperance Bedford144.1
12Cooper Franklin18:48.3Ann Arbor Pioneer143.6
11Jack Zaske18:49.4Saline143.2
10Wyatt Behrendt18:50.0Ypsilanti Lincoln143.0
11Owen Liepman18:50.7Saline142.8
12Grant Yeager18:51.6Temperance Bedford142.5
10Gabe Sanborn18:52.3Ann Arbor Pioneer142.2
11Dominik White18:53.0Saline142.0
11Rylan Teddy18:53.4Dexter141.9
10Mo Cugliari18:54.2Chelsea141.6
9Braxon Lake18:55.4Temperance Bedford141.2
9Jacob Yeager18:55.8Temperance Bedford141.1
10Patrick Donoghue18:56.2Ann Arbor Pioneer140.9
9Jonah Kraft18:56.5Ann Arbor Huron140.8
10Ben Botkin18:57.8Ann Arbor Pioneer140.4
11Kaden Jensen18:58.2Dexter140.3
12Ben Lammers18:58.5Tecumseh140.2
10Owen Nesbit18:59.3Ann Arbor Pioneer139.9
11Ethan Yesko18:59.3Saline139.9
12Thomas Schorer18:59.5Ann Arbor Huron139.8
11Devin Saxon18:59.9Ann Arbor Huron139.7
10Carter Hill18:59.9Dexter139.7
9Zach Newman19:00.8Pinckney139.4
11Gavin Burt19:02.4Saline138.9
12Tyler Nowak19:06.4Tecumseh137.5
12Micah Conner19:06.6Jackson137.5
9Gary Ying19:07.2Ann Arbor Skyline137.3
9Aidan Ortiz19:07.8Temperance Bedford137.1
12Grayson Eckland19:08.5Chelsea136.8
9Aiden DePue19:09.5Temperance Bedford136.5
10Adrik Ruch19:11.0Temperance Bedford136.0
12Chris Warren19:11.6Tecumseh135.8
12Nathan Mertens19:13.1Ypsilanti Lincoln135.3
11Matais Gonzales19:13.8Ann Arbor Pioneer135.1
12Colby Pfeiffer19:16.1Chelsea134.3
12Joe Williams19:17.4Ann Arbor Pioneer133.9
12Grey Johnson19:18.1Monroe133.6
9Myles Bray19:20.7Monroe132.8
11Daniel Rhoades19:20.9Monroe132.7
12Donato Hovourd19:21.6Pinckney132.5
12Andy Jordan19:22.5Dexter132.2
10Chris Stein19:23.0Monroe132.0
11Matt Dombrowski19:23.3Ann Arbor Pioneer131.9
11Nicolas Jiang19:23.9Ann Arbor Huron131.7
10Will Kletzka19:25.4Dexter131.2
11Aidan Hale19:29.1Ann Arbor Skyline130.0
12Chris Smith19:30.2Saline129.6
11Andrew England19:30.7Jackson129.4
10Evan Richert19:30.8Ypsilanti Lincoln129.4
9Sawyer Ulery19:31.8Temperance Bedford129.1
12Luke Petrinko19:33.2Dexter128.6
10Nathan Leung19:33.5Ann Arbor Huron128.5
12Andrew Covalle19:34.4Jackson128.2
10Jack Durivage19:35.2Temperance Bedford127.9
9Joel Miklosovic19:36.8Saline127.4
10Varun Yalavarthi19:38.7Ann Arbor Huron126.8
11Anthony Kruszka19:39.1Temperance Bedford126.6
12Hayden Schad19:40.9Saline126.0
9Josiah Koch19:41.5Saline125.8
10Carson Ritz19:42.3Adrian125.6
10Liam Ridenour19:43.9Ann Arbor Huron125.0
12Adi Balaji19:44.2Ann Arbor Skyline124.9
10Jack Burin19:44.6Dexter124.8
11Soren Nielsen19:45.0Ann Arbor Skyline124.7
11Mike Dombrowski19:45.5Ann Arbor Pioneer124.5
10Chase Nyack19:45.6Adrian124.5
11Gregor Morton19:46.5Saline124.2
9Max Marten19:46.6Tecumseh124.1
12Tyler Thibeault19:48.0Saline123.7
12John Putnam19:50.4Chelsea122.9
11Andrew McNally19:50.9Saline122.7
12Miles Przybylski19:51.0Temperance Bedford122.7
10Marshall Peacock19:51.2Tecumseh122.6
9Guy LaBrecque19:52.3Saline122.2
9Tyler Bruggeman19:52.4Adrian122.2
10Cameron Sindlinger19:52.4Ypsilanti Lincoln122.2
10Wyatt Hockley19:53.8Ann Arbor Pioneer121.7
11Jake Eagling19:55.2Adrian121.3
9Collin Eckermann19:57.8Saline120.4
11Matthew DePlanche19:59.4Saline119.9
10Aldus Yun20:00.3Ann Arbor Pioneer119.6
9Eli Hinkleman20:00.4Temperance Bedford119.5
12Elliott Varnum20:00.6Ann Arbor Pioneer119.5
10Elisha Correll20:01.0Jackson119.3
9Thomas Endres20:01.0Saline119.3
11Jake Hardesty20:02.8Pinckney118.7
12Carter Bankowski20:03.3Saline118.6
12Ryan Prielipp20:04.0Temperance Bedford118.3
10Victor Heskia20:04.3Ann Arbor Huron118.2
10Ethan Thomas20:04.9Temperance Bedford118.0
9Kaleb Dekoeyer20:05.3Temperance Bedford117.9
11Joshua Schreck20:05.4Tecumseh117.9
11Landon Wilson20:05.5Dexter117.8
12Tory Clark20:06.3Tecumseh117.6
9Jonas Enriquez20:07.6Temperance Bedford117.1
9Alex Nemecek20:07.9Ann Arbor Skyline117.0
12Kyle Neuman20:08.9Adrian116.7
9William Rosales20:10.7Saline116.1
9Kyle Osborne20:18.3Pinckney113.6
10Ethan Umberger20:22.1Saline112.3
10Koen Lanker20:22.4Saline112.2
12Colin Kovick20:32.3Chelsea108.9
11Zack Hildebrandt20:33.0Ann Arbor Huron108.7
11Kyle Sutton20:34.5Dexter108.2
10Yuma Tsubouchi20:35.6Dexter107.8
10Johnathan Ball20:36.9Temperance Bedford107.4
10Braiden Welch20:38.3Temperance Bedford106.9
10Carter Verkerk20:38.6Saline106.8
10Nicholas Bennett20:39.7Saline106.4
9Jordan Marsh20:39.8Saline106.4
10Evan Marsee20:40.6Ann Arbor Pioneer106.1
9Luke Ankeney20:41.0Ann Arbor Pioneer106.0
11John Muckle20:41.3Chelsea105.9
11Will O’Haver20:41.7Dexter105.8
10Sam Gibson20:42.6Dexter105.5
11Aiden Burke20:45.3Saline104.6
11Colin Alexander20:49.4Saline103.2
9Owen Strieter-Byron20:52.3Tecumseh102.2
9Alex Watson20:54.9Dexter101.4
9Ben Nichols20:55.7Jackson101.1
10Connor Zatkovich20:57.8Chelsea100.4
10Roman Bonfiglio20:58.7Saline100.1
9Theodore Sykes21:03.5Jackson98.5
9Bryce Bales21:11.2Dexter95.9
10Michael Gronewold21:12.0Ann Arbor Pioneer95.7
12Andrew Petik21:12.8Dexter95.4
12Royce Doll21:13.7Pinckney95.1
10Elijah Ames21:16.7Saline94.1
10Cooper Alger21:19.9Jackson93.0
11Landon Bush21:21.3Saline92.6
11Mason Grann21:22.9Dexter92.0
12Thomas DesRosiers21:26.6Dexter90.8
10Luke Lindsay21:27.0Monroe90.7
10Isaac Roughton21:29.2Saline89.9
10Garrett Kovacs21:29.4Ann Arbor Huron89.9
10Charlie Munson21:29.7Dexter89.8
11Gabe Muckle21:30.3Chelsea89.6
9Gabe Maciag21:30.9Pinckney89.4
10Adam Norden21:31.3Tecumseh89.2
9Marty Watson21:35.3Dexter87.9
9Finn Wilson21:36.3Ann Arbor Pioneer87.6
9Graham Barnett21:36.9Ann Arbor Huron87.4
10Alexander D’Haene21:37.9Ann Arbor Huron87.0
10Alex Fruth21:41.8Saline85.7
10Chris Coffer21:42.2Dexter85.6
12Carter Miller21:43.2Temperance Bedford85.3
11James Eldredge21:43.6Tecumseh85.1
10Harold Crowner21:43.9Saline85.0
9Cameron Russell21:45.2Ann Arbor Pioneer84.6
9Maximo D’Andrea21:55.0Ann Arbor Huron81.3
11Jay Hawkins21:56.9Chelsea80.7
9Reggie Geftos21:59.3Monroe79.9
11Seth McComas22:01.8Dexter79.1
10Kai Mastenbrook22:03.7Pinckney78.4
11Nathan Robke22:04.1Dexter78.3
9Ryan Friedholm22:07.0Saline77.3
11Jett Roles22:09.9Saline76.4
11Dolan Gonzales22:12.0Saline75.7
12Aaron Breese22:12.3Saline75.6
9Xingzhi(Tom) Tan22:13.6Ann Arbor Huron75.1
9Andrew Irgang22:15.7Saline74.4
9Patrick (PJ) Carty22:17.4Dexter73.9
9Blake Cabble22:19.5Dexter73.2
11Owen Mineweaser22:21.5Jackson72.5
11Yuri Carnino22:31.1Saline69.3
10Lukas Rasche22:39.7Ann Arbor Pioneer66.4
9Soren Stone-Palmqu…22:41.7Ann Arbor Huron65.8
9Gray Kryscynski22:50.0Ann Arbor Skyline63.0
10Charlie Lutz22:50.0Dexter63.0
10Adison Din22:51.0Dexter62.7
9James Minelli22:53.5Dexter61.8
10Jakob Andrews22:56.8Ypsilanti Lincoln60.7
9Xander Shadley22:57.2Ypsilanti Lincoln60.6
12Ashton Palm22:59.3Dexter59.9
9Kiren Sankaran23:02.5Saline58.8
9Logan Kipley23:09.8Saline56.4
11Sean Kavanaugh23:17.0Saline54.0
11David Dornoff23:21.6Dexter52.5
9Qian Li23:24.4Ann Arbor Huron51.5
9Jack Scarpati23:25.3Saline51.2
10Kevin Hawkins Jr.23:25.9Ypsilanti51.0
9Aidan Petik23:26.3Dexter50.9
11Gael Borges23:27.3Ann Arbor Huron50.6
10Jaxson Cicotte23:27.5Dexter50.5
10Jack Hollingsworth23:29.1Ann Arbor Pioneer50.0
9Ze(Jack) Jin23:30.4Ann Arbor Huron49.5
9Parker Razelun23:31.3Ann Arbor Skyline49.2
10Andrew Wehr23:33.1Saline48.6
10Jacob Cruz23:33.9Ann Arbor Pioneer48.4
9Jack Robichaud23:37.6Ann Arbor Skyline47.1
11Ezra Mazza23:40.3Ypsilanti46.2
10Josh Johnson23:44.8Dexter44.7
10Aidan Gadepalli23:56.6Ann Arbor Huron40.8
9Adrian Sieh24:02.5Saline38.8
10Aidan Sutherland24:03.2Saline38.6
9Rex Bajcz24:32.6Ann Arbor Pioneer28.8
10Noah Brown24:34.7Saline28.1
10Dennis Durakovic24:35.7Saline27.8
12Ethan Rick24:35.7Tecumseh27.8
10Nathan Gillespie24:43.2Temperance Bedford25.3
10Adam Porter24:49.3Ann Arbor Pioneer23.2
10Joaquin Moore25:05.1Ann Arbor Huron18.0
9Wesley Jenkins25:24.8Ann Arbor Skyline11.4

Leave a Reply

Fill in your details below or click an icon to log in:

WordPress.com Logo

You are commenting using your WordPress.com account. Log Out /  Change )

Google photo

You are commenting using your Google account. Log Out /  Change )

Twitter picture

You are commenting using your Twitter account. Log Out /  Change )

Facebook photo

You are commenting using your Facebook account. Log Out /  Change )

Connecting to %s